OIKQ  Dayrestan Airport

Add Bookmark

Iran

Status
Operational
Latitude Longitude
26° 45' 16" N 55° 54' 8" E
26.754601 55.902401
Local (DST + 5) UTC (GMT + 4)
Jan 29, 2015 11:50 Jan 29, 2015 20:20
Sunrise-Sunset Local UTC
Begin Civil Twilight 06:07 02:37
Sunrise 06:31 03:01
Sunset 05:27 13:57
End Civil Twilight 05:51 14:21

Current Weather

METAR Observed MVFR
OIKQ 291900Z 00000KT 7000 SKC 18/13 Q1018 Thu, Jan 29, 2015 @ 19:00 UTC
(1 Hour, 20 Minutes ago)
Marginal Visual Flight Rules
Wind Visibility Clouds Conditions
Calm 7000 meters
  • Clear skies
  • No significant weather
Temperatures Readings Precipitation
Current Temp 18°C (64°F)
Dewpoint 13°C (55°F)
Humidity 73%
Altimeter 30.06"Hg
Sea Level Pressure 1018mb
Field Elevation 39.37'
None Recorded

Additional weather within a 92.6km radius of OIKQ

Map ICAO Location
OIKB 69.8km N (042°)

24 Hour Weather History

Loading
-

24 Hour Weather Graphs

Loading
-

CheckWX.com is intended as a tool to help pilots better visualize weather data. It is not intended as a substitute for an official weather briefing obtained from a Flight Service Station. CheckWX.com does not meet the FAA requirements for an official pre-flight weather briefing. Therefore, it's important that pilots still call and obtain an official FSS pre-flight weather briefing.